TimeCST,TemperatureF,Dew PointF,Humidity,Sea Level PressureIn,VisibilityMPH,Wind Direction,Wind SpeedMPH,Gust SpeedMPH,PrecipitationIn,Events,Conditions,WindDirDegrees,DateUTC
3:00 AM,,57,,30.13,12,North,88.6,,,,,10,2013-03-04 09:00:00
5:00 AM,60.8,57.2,88,30.14,6.2,West,2.3,-,N/A,,Scattered Clouds,270,2013-03-04 11:00:00
6:00 AM,60,56,83,30.17,12,West,4.6,,,,Scattered Clouds,270,2013-03-04 12:00:00
6:00 AM,60.8,57.2,88,30.16,6.2,West,4.6,-,N/A,,Scattered Clouds,270,2013-03-04 12:00:00
7:00 AM,60.8,57.2,88,30.18,6.2,West,3.5,-,N/A,,Scattered Clouds,280,2013-03-04 13:00:00
8:00 AM,64.4,55.4,73,30.19,-9999.0,NW,6.9,-,N/A,,Clear,310,2013-03-04 14:00:00
9:00 AM,67,57,63,30.20,15,North,6.9,,,,Mostly Cloudy,350,2013-03-04 15:00:00
9:00 AM,66.2,57.2,73,30.19,-9999.0,North,6.9,-,N/A,,Clear,350,2013-03-04 15:00:00
10:00 AM,69.8,59.0,68,30.18,6.2,NNW,3.5,-,N/A,,Mostly Cloudy,340,2013-03-04 16:00:00
11:00 AM,73.4,60.8,65,30.16,6.2,NE,5.8,-,N/A,,Mostly Cloudy,50,2013-03-04 17:00:00
12:00 PM,75,61,52,30.13,16,ENE,5.8,,,,Mostly Cloudy,60,2013-03-04 18:00:00
12:00 PM,75.2,60.8,61,30.13,6.2,ENE,5.8,-,N/A,,Scattered Clouds,60,2013-03-04 18:00:00
1:00 PM,78.8,62.6,57,30.09,6.2,East,8.1,-,N/A,,Scattered Clouds,80,2013-03-04 19:00:00
2:00 PM,77.0,62.6,61,30.06,6.2,ENE,11.5,-,N/A,,Scattered Clouds,70,2013-03-04 20:00:00
3:00 PM,78,62,48,30.04,19,East,9.2,,,,Scattered Clouds,90,2013-03-04 21:00:00
3:00 PM,78.8,62.6,57,30.04,6.2,East,9.2,-,N/A,,Partly Cloudy,90,2013-03-04 21:00:00
4:00 PM,77.0,62.6,61,30.03,6.2,East,9.2,-,N/A,,Partly Cloudy,90,2013-03-04 22:00:00
5:00 PM,77.0,59.0,54,30.04,6.2,SE,5.8,-,N/A,,Partly Cloudy,130,2013-03-04 23:00:00
6:00 PM,74,60,53,30.05,16,East,5.8,,,,Scattered Clouds,100,2013-03-05 00:00:00
6:00 PM,73.4,60.8,65,30.04,6.2,East,4.6,-,N/A,,Partly Cloudy,100,2013-03-05 00:00:00
9:00 PM,69.8,62.6,78,30.09,-9999.0,East,4.6,-,N/A,,Clear,100,2013-03-05 03:00:00